User: anonymous   Login
Location: Strawberry
(45.6646°N, 111.9596°W)
Time: 11:19:39
(UTC+00:00)
Language:

UWE-3 - Orbit

View from above orbital plane
View from above orbital plane
View from above satellite
View from above satellite

Ground track
Ground track

The orbit data is extracted from the following two-line orbital elements,

1 39446U 13066AG  22333.66359366  .00001773  00000-0  23143-3 0  9993
2 39446  97.7091 290.8368 0066128 270.8800  88.4836 14.80250985484897
Epoch (UTC): 29 November 2022 15:55:34
Eccentricity: 0.0066128
inclination: 97.7091°
perigee height: 582 km
apogee height: 675 km
right ascension of ascending node: 290.8368°
argument of perigee: 270.8800°
revolutions per day: 14.80250985
mean anomaly at epoch: 88.4836°
orbit number at epoch: 48489

The dashed part of the orbit path shows where the satellite is in the earth's shadow,  

DLR